www.pogodaiklimat.ru
ПОГОДА в Мохаве
Время
и дата
13:20 30.01
13:40 30.01
14:00 30.01
14:20 30.01
14:40 30.01
15:00 30.01
15:20 30.01
15:40 30.01
16:00 30.01
16:20 30.01
16:40 30.01
17:00 30.01
17:20 30.01
17:40 30.01
18:00 30.01
18:20 30.01
18:40 30.01
19:00 30.01
19:20 30.01
19:40 30.01
20:00 30.01
20:20 30.01
20:40 30.01
21:00 30.01
21:20 30.01
21:40 30.01
22:00 30.01
22:20 30.01
22:40 30.01
23:00 30.01
23:20 30.01
23:40 30.01
00:00 31.01
00:20 31.01
00:40 31.01
01:00 31.01
01:20 31.01
01:40 31.01
02:00 31.01
02:20 31.01
02:40 31.01
03:00 31.01
03:20 31.01
03:40 31.01
04:00 31.01
04:20 31.01
04:40 31.01
05:00 31.01
Ветер
(напр.,м/с)
Видим. Явления Облачность Т
(С)
Тd
(С)
f
(%)
Тe
(С)
Тes
(С)
Комфортность P
(гПа)
Po
(гПа)
Тmin
(С)
Tmax
(С)
R
(мм)
R24
(мм)
S
(см)
СВ 7
{9}
16 км 5/0 3300 m
[Ac]
+8.0 -6.0 36 +4 +6 916.7
СВ 7 16 км ясно +9.0 -6.0 34 +6 +8 916.4
СВ 6
{9}
16 км ясно +9.0 -6.0 34 +6 +8 916.4
В 7 16 км ясно +9.0 -6.0 34 +6 +7 916.4
В 8 16 км ясно +9.0 -6.0 34 +5 +6 916.4
В 8
{10}
16 км ясно +9.0 -6.0 34 +5 +6 916.4
СВ 7 16 км 8/0 3300 m
[Ac]
+9.0 -6.0 34 +6 +6 916.4
СВ 7 16 км 2/0 3300 m
[Ac]
+9.0 -6.0 34 +6 +6 916.4
СВ 9 16 км ясно +9.0 -6.0 34 +5 +5 916.4
СВ 8 16 км ясно +9.0 -7.0 32 +5 +6 916.7
СВ 7
{9}
16 км ясно +9.0 -8.0 29 +6 +6 917.0
СВ 7 16 км ясно +8.0 -8.0 31 +4 +4 917.0
В 6 16 км ясно +8.0 -6.0 36 +5 +5 917.0
СВ 4 16 км ясно +7.0 -5.0 42 +4 +4 917.3
С 5 16 км ясно +6.0 -5.0 45 +2 +2 917.3
СВ 6 16 км 2/2 1320 м +6.0 -6.0 42 +2 +2 917.6
СВ 4 16 км 5/5 1380 м +5.0 -6.0 45 +2 +2 917.6
В 3 16 км 2/2 1410 м +5.0 -5.0 48 +2 +2 917.9
СВ 4 16 км 2/2 1410 м +4.0 -5.0 52 0 0 918.2
СВ 2 16 км 2/2 1500 м +3.0 -5.0 56 +1 +1 918.5
СВ 3 16 км 2/2 1290 м +3.0 -6.0 52 0 0 918.8
СВ 2 16 км 5/5 1410 м +2.0 -6.0 55 -1 -1 919.1
СВ 3 16 км 5/5 1500 м +2.0 -6.0 55 -2 -2 919.4
СВ 4 16 км 5/5 1500 м +2.0 -6.0 55 -2 -2 919.7
С 4 16 км 5/5 1500 м +1.0 -7.0 55 -4 -4 919.7
С 5 16 км 2/2 1170 м +1.0 -7.0 55 -4 -4 919.7
С 4 16 км 2/2 1500 м +1.0 -7.0 55 -4 -4 919.7
СВ 2 16 км 2/2 1440 м 0.0 -7.0 59 -3 -3 920.0
штиль 0 16 км 2/2 1500 м 0.0 -7.0 59 -1 -1 920.3
С 3 16 км 2/2 1440 м 0.0 -7.0 59 -4 -4 920.3
С 2 16 км 2/2 1410 м 0.0 -7.0 59 -3 -3 920.3
штиль 0 16 км 2/2 1500 м 0.0 -8.0 55 -1 -1 920.6
штиль 0 16 км 5/5 1140 м 0.0 -8.0 55 -1 -1 920.3
С 4 16 км 5/5 1410 м -1.0 -7.0 64 -6 -6 920.3
С 3 16 км 5/5 1380 м 0.0 -9.0 51 -4 -4 920.3
С 4 16 км 2/2 1350 м 0.0 -8.0 55 -5 -5 920.3
С 3 16 км ясно -2.0 -7.0 69 -7 -7 920.3
С 3 16 км 2/2 1500 м -2.0 -7.0 69 -7 -7 920.3
С 3 16 км 5/5 1320 м -2.0 -7.0 69 -7 -7 920.6
С 3 16 км 5/5 1230 м -3.0 -7.0 74 -8 -8 920.6
С 3 16 км 2/2 1230 м -3.0 -7.0 74 -8 -8 920.6
СВ 3 16 км 2/2 1290 м -2.0 -8.0 63 -7 -7 920.9
СВ 3 16 км ясно -1.0 -10.0 50 -5 -5 920.9
СВ 3 16 км 2/2 1650 м 0.0 -12.0 40 -4 -4 920.9
СВ 3 16 км 2/2 1440 м 0.0 -13.0 37 -4 -4 920.9
С 4 16 км 2/2 1200 м -1.0 -12.0 43 -6 -6 921.3
С 4 16 км 2/2 1230 м -3.0 -10.0 58 -9 -9 921.3
штиль 0 16 км 2/2 1230 м -4.0 -10.0 63 -5 -5 921.6
Местоположение метеостанции Mojave Airport: широта 35.0667 долгота -118.1500 высота над уровнем моря 849 м.
В архиве по умолчанию представлена погода в Мохаве за последние 1-2 суток. Обновление информации о фактической погоде в базе происходит ежечасно! Архивные данные за месяц целиком и за предыдущие месяцы Вы можете получить, выбрав интересующий диапазон дат из раскрывающегося списка и нажав кнопку "Ввод!".
Внимание! Архив погоды МЕТАР в базе сайта по станциям, не включенным в климатический монитор, хранится не более 60 дней. Нет смысла пытаться выбрать более раннюю дату.
*Определитесь, кто Вы:
Внимание! Время в таблицах - местное (без учета летнего времени). Для получения всемирного времени необходимо вычесть поправку, которая равна -8 ч.
Смотрите также архив погоды в соседних городах и на ближайших метеорологических станциях:
Партнеры нашего сайта:      
Пояснения к столбцам:
  • Ветер - указаны скорость ветра в м/с - средняя за 10 мин, порывы в срок и между сроками (в фигурных скобках) и направление, откуда дует ветер: С - северный,
  • СВ - северо-восточный, В - восточный, ЮВ - юго-восточный, Ю - южный, ЮЗ - юго-западный, З - западный, СЗ - северо-западный.
  • Видимость - горизонтальная дальность видимости в метрах или километрах. При видимости от 1 до 10 км при отсутствии осадков обычно наблюдается дымка, при ухудшении видимости до 1 км и менее - туман. В сухую погоду видимость может ухудшаться дымом, пылью или мглою.
  • Явления - указаны атмосферные явления, наблюдавшиеся в срок или в последний час перед сроком; фигурными скобками обозначены явления, наблюдавшиеся между сроками (за 1-3 часа до срока); квадратными скобками обозначены град или гололедные отложения с указанием их диаметра в мм.
  • Облачность - указаны через наклонную черту общая и нижняя облачность в баллах и высота нижней границы облаков в метрах; квадратными скобками обозначены формы облаков: Ci - перистые, Cs - перисто-слоистые, Cc - перисто-кучевые, Ac - высококучевые, As - высокослоистые, Sc - слоисто-кучевые, Ns - слоисто-дождевые, Cu - кучевые, Cb - кучево-дождевые. Подробнее классификацию облаков см. в Атласе облаков (PDF).
  • T - Температура воздуха - температура, измеренная на высоте 2 м над землей.
  • Td - Температура точки росы - температура, при понижении до которой содержащийся в воздухе водяной пар достигнет насыщения.
  • f - Относительная влажность воздуха - влажноcть воздуха, измеренная на высоте 2 м над землей.
  • Te - Эффективная температура - температура, которую ощущает одетый по сезону человек в тени. Характеристика душности погоды. При расчете учитывается влияние влажности воздуха и скорости ветра на теплоощущения человека.
  • Tes - Эффективная температура на солнце - температура, которую ощущает человек, с поправкой на солнечный нагрев. Характеристика знойности погоды. Зависит от высоты солнца над горизонтом, облачности и скорости ветра. Ночью, в пасмурную погоду, а также при ветре 12 м/с и более поправка равна нулю.
  • P - Атмосферное давление - приведенное к уровню моря атмосферное давление.
  • Po - Атмосферное давление - измеренное на уровне метеостанции атмосферное давление.
  • Tmin - Минимальная температура - минимум температуры воздуха на высоте 2 м над землей.
  • Tmax - Максимальная температура - максимум температуры воздуха на высоте 2 м над землей.
  • R - Количество осадков - Количество выпавших осадков за период времени, мм. При наведении курсора мыши на число - период времени, за который выпало указанное количество осадков.
  • R24 - Количество осадков - Количество выпавших осадков за 24 часа, мм.
  • S - Снежный покров - Высота снежного покрова, см. При наведении курсора мыши на число - состояние снежного покрова и степень покрытия местности в баллах.